TimeEST,TemperatureF,Dew PointF,Humidity,Sea Level PressureIn,VisibilityMPH,Wind Direction,Wind SpeedMPH,Gust SpeedMPH,PrecipitationIn,Events,Conditions,WindDirDegrees,DateUTC
12:54 AM,21.9,5.0,48,30.28,10.0,Calm,Calm,-,N/A,,Clear,0,2013-01-23 05:54:00
1:54 AM,21.0,7.0,55,30.29,10.0,Calm,Calm,-,N/A,,Clear,0,2013-01-23 06:54:00
2:54 AM,19.0,7.0,59,30.30,10.0,Calm,Calm,-,N/A,,Clear,0,2013-01-23 07:54:00
3:54 AM,18.0,10.0,71,30.31,10.0,Calm,Calm,-,N/A,,Clear,0,2013-01-23 08:54:00
4:54 AM,18.0,9.0,68,30.31,10.0,Calm,Calm,-,N/A,,Clear,0,2013-01-23 09:54:00
5:54 AM,16.0,10.9,81,30.32,10.0,Calm,Calm,-,N/A,,Partly Cloudy,0,2013-01-23 10:54:00
6:54 AM,17.1,9.0,71,30.34,10.0,Calm,Calm,-,N/A,,Clear,0,2013-01-23 11:54:00
7:54 AM,17.1,12.0,81,30.34,10.0,Calm,Calm,-,N/A,,Clear,0,2013-01-23 12:54:00
8:54 AM,24.1,10.0,55,30.36,10.0,Calm,Calm,-,N/A,,Clear,0,2013-01-23 13:54:00
9:54 AM,27.0,6.1,41,30.37,10.0,Calm,Calm,-,N/A,,Clear,0,2013-01-23 14:54:00
10:54 AM,30.0,5.0,35,30.36,10.0,Variable,4.6,-,N/A,,Clear,0,2013-01-23 15:54:00
11:54 AM,35.1,7.0,31,30.32,10.0,Variable,4.6,-,N/A,,Clear,0,2013-01-23 16:54:00
12:54 PM,37.9,10.0,32,30.26,10.0,SW,12.7,23.0,N/A,,Clear,230,2013-01-23 17:54:00
1:54 PM,39.0,12.0,33,30.23,10.0,WSW,10.4,-,N/A,,Partly Cloudy,240,2013-01-23 18:54:00
2:54 PM,41.0,14.0,33,30.21,10.0,SW,10.4,-,N/A,,Overcast,220,2013-01-23 19:54:00
3:54 PM,41.0,14.0,33,30.19,10.0,SSW,10.4,16.1,N/A,,Clear,210,2013-01-23 20:54:00
4:54 PM,39.0,14.0,36,30.19,10.0,SSW,8.1,-,N/A,,Clear,210,2013-01-23 21:54:00
5:54 PM,37.0,14.0,39,30.18,10.0,South,4.6,-,N/A,,Clear,170,2013-01-23 22:54:00
6:54 PM,34.0,12.9,42,30.17,10.0,Calm,Calm,-,N/A,,Clear,0,2013-01-23 23:54:00
7:54 PM,28.9,17.1,61,30.14,10.0,Calm,Calm,-,N/A,,Clear,0,2013-01-24 00:54:00
8:54 PM,28.9,16.0,58,30.13,10.0,Calm,Calm,-,N/A,,Clear,0,2013-01-24 01:54:00
9:54 PM,28.9,15.1,56,30.11,10.0,Calm,Calm,-,N/A,,Clear,0,2013-01-24 02:54:00
11:54 PM,32.0,15.1,50,30.04,10.0,South,3.5,-,N/A,,Clear,190,2013-01-24 04:54:00